Location: La Oliva
(42.2466°N, 2.9955°E)
Time: 10:59:12
(UTC+00:00)

CZ-2C R/B - Pass Details

Date: 22 April 2021
Orbit: 784 x 871 km, 98.2° (Epoch: 10 May)

Event Time Altitude Azimuth Distance (km) Brightness Sun altitude
Rises 19:14:53 0° 8° (N) 3,291 6.0 -7.3°
Reaches altitude 10° 19:17:15 10° 3° (N) 2,364 5.3 -7.7°
Maximum altitude 19:22:17 52° 289° (WNW) 988 3.6 -8.5°
Drops below altitude 10° 19:27:24 10° 213° (SSW) 2,391 5.2 -9.4°
Sets 19:29:48 0° 209° (SSW) 3,331 5.8 -9.8°
